Time,TemperatureF,DewpointF,PressureIn,WindDirection,WindDirectionDegrees,WindSpeedMPH,WindSpeedGustMPH,Humidity,HourlyPrecipIn,Conditions,Clouds,dailyrainin,SoftwareType,DateUTC
2013-02-02 00:00:00,25.5,12.0,30.21,SW,228,2.0,13.0,56,0.00,,,0.00,meteohub,2013-02-02 05:00:00,
2013-02-02 00:01:00,25.5,12.0,30.21,West,259,8.0,10.0,56,0.00,,,0.00,meteohub,2013-02-02 05:01:00,
2013-02-02 00:02:00,25.5,12.0,30.21,South,184,3.0,10.0,56,0.00,,,0.00,meteohub,2013-02-02 05:02:00,
2013-02-02 00:03:00,25.5,12.0,30.21,ESE,109,2.0,10.0,56,0.00,,,0.00,meteohub,2013-02-02 05:03:00,
2013-02-02 00:08:00,25.5,12.0,30.21,East,86,4.0,9.0,56,0.00,,,0.00,meteohub,2013-02-02 05:08:00,
2013-02-02 00:13:00,25.3,11.5,30.21,South,190,2.0,9.0,55,0.00,,,0.00,meteohub,2013-02-02 05:13:00,
2013-02-02 00:19:00,25.3,11.5,30.22,NNW,348,7.0,9.0,55,0.00,,,0.00,meteohub,2013-02-02 05:19:00,
2013-02-02 00:24:00,25.3,11.5,30.22,South,186,1.0,9.0,55,0.00,,,0.00,meteohub,2013-02-02 05:24:00,
2013-02-02 00:29:00,25.3,11.5,30.22,South,171,3.0,9.0,55,0.00,,,0.00,meteohub,2013-02-02 05:29:00,
2013-02-02 00:34:00,25.3,11.5,30.22,NNW,336,7.0,9.0,55,0.00,,,0.00,meteohub,2013-02-02 05:34:00,
2013-02-02 00:39:00,25.2,11.3,30.22,South,178,2.0,10.0,55,0.00,,,0.00,meteohub,2013-02-02 05:39:00,
2013-02-02 00:45:00,25.2,11.3,30.22,NW,308,3.0,10.0,55,0.00,,,0.00,meteohub,2013-02-02 05:45:00,
2013-02-02 00:50:00,25.2,11.3,30.22,SSW,212,2.0,10.0,55,0.00,,,0.00,meteohub,2013-02-02 05:50:00,
2013-02-02 00:55:00,25.0,11.1,30.22,SSE,166,2.0,8.0,55,0.00,,,0.00,meteohub,2013-02-02 05:55:00,
2013-02-02 01:00:00,25.0,11.1,30.22,South,177,2.0,8.0,55,0.00,,,0.00,meteohub,2013-02-02 06:00:00,
2013-02-02 01:05:00,24.8,10.9,30.22,North,349,5.0,8.0,55,0.00,,,0.00,meteohub,2013-02-02 06:05:00,
2013-02-02 01:10:00,24.8,10.9,30.23,West,279,3.0,7.0,55,0.00,,,0.00,meteohub,2013-02-02 06:10:00,
2013-02-02 01:15:00,24.8,10.9,30.23,East,95,4.0,8.0,55,0.00,,,0.00,meteohub,2013-02-02 06:15:00,
2013-02-02 01:21:00,25.0,11.1,30.23,South,176,1.0,8.0,55,0.00,,,0.00,meteohub,2013-02-02 06:21:00,
2013-02-02 01:26:00,24.8,10.6,30.23,WSW,252,4.0,12.0,54,0.00,,,0.00,meteohub,2013-02-02 06:26:00,
2013-02-02 01:31:00,24.6,10.4,30.23,NE,41,5.0,12.0,54,0.00,,,0.00,meteohub,2013-02-02 06:31:00,
2013-02-02 01:36:00,24.6,10.4,30.24,SW,225,2.0,12.0,54,0.00,,,0.00,meteohub,2013-02-02 06:36:00,
2013-02-02 01:41:00,24.4,10.6,30.24,West,259,3.0,10.0,55,0.00,,,0.00,meteohub,2013-02-02 06:41:00,
2013-02-02 01:47:00,24.3,10.0,30.24,West,274,2.0,10.0,54,0.00,,,0.00,meteohub,2013-02-02 06:47:00,
2013-02-02 01:52:00,24.1,9.9,30.24,NE,53,4.0,10.0,54,0.00,,,0.00,meteohub,2013-02-02 06:52:00,
2013-02-02 01:57:00,24.1,9.9,30.24,WNW,300,3.0,10.0,54,0.00,,,0.00,meteohub,2013-02-02 06:57:00,
2013-02-02 02:02:00,24.1,9.9,30.24,West,259,3.0,10.0,54,0.00,,,0.00,meteohub,2013-02-02 07:02:00,
2013-02-02 02:07:00,23.9,10.0,30.24,South,187,4.0,8.0,55,0.00,,,0.00,meteohub,2013-02-02 07:07:00,
2013-02-02 02:12:00,23.7,9.9,30.24,SW,226,5.0,9.0,55,0.00,,,0.00,meteohub,2013-02-02 07:12:00,
2013-02-02 02:17:00,23.7,9.9,30.24,SW,217,2.0,9.0,55,0.00,,,0.00,meteohub,2013-02-02 07:17:00,
2013-02-02 02:22:00,23.5,9.7,30.24,NNE,32,2.0,9.0,55,0.00,,,0.00,meteohub,2013-02-02 07:22:00,
2013-02-02 02:27:00,23.5,10.2,30.24,SSE,167,2.0,9.0,56,0.00,,,0.00,meteohub,2013-02-02 07:27:00,
2013-02-02 02:32:00,23.5,9.7,30.24,NNE,17,4.0,9.0,55,0.00,,,0.00,meteohub,2013-02-02 07:32:00,
2013-02-02 02:37:00,23.5,9.7,30.24,WNW,300,6.0,8.0,55,0.00,,,0.00,meteohub,2013-02-02 07:37:00,
2013-02-02 02:42:00,23.5,9.7,30.25,ENE,63,4.0,8.0,55,0.00,,,0.00,meteohub,2013-02-02 07:42:00,
2013-02-02 02:47:00,23.5,9.7,30.25,NW,317,5.0,8.0,55,0.00,,,0.00,meteohub,2013-02-02 07:47:00,
2013-02-02 02:52:00,23.4,9.5,30.25,NNW,341,3.0,8.0,55,0.00,,,0.00,meteohub,2013-02-02 07:52:00,
2013-02-02 02:57:00,23.4,9.5,30.25,West,259,2.0,11.0,55,0.00,,,0.00,meteohub,2013-02-02 07:57:00,
2013-02-02 03:02:00,23.4,9.5,30.25,SW,219,2.0,11.0,55,0.00,,,0.00,meteohub,2013-02-02 08:02:00,
2013-02-02 03:07:00,23.4,9.5,30.25,NE,56,6.0,8.0,55,0.00,,,0.00,meteohub,2013-02-02 08:07:00,
2013-02-02 03:12:00,23.2,9.3,30.25,NE,45,5.0,9.0,55,0.00,,,0.00,meteohub,2013-02-02 08:12:00,
2013-02-02 03:17:00,23.2,9.3,30.26,North,354,6.0,9.0,55,0.00,,,0.00,meteohub,2013-02-02 08:17:00,
2013-02-02 03:22:00,23.0,9.3,30.26,ENE,60,9.0,11.0,55,0.00,,,0.00,meteohub,2013-02-02 08:22:00,
2013-02-02 03:27:00,23.0,9.3,30.26,NNE,32,7.0,11.0,55,0.00,,,0.00,meteohub,2013-02-02 08:27:00,
2013-02-02 03:32:00,22.8,9.1,30.26,West,278,2.0,13.0,55,0.00,,,0.00,meteohub,2013-02-02 08:32:00,
2013-02-02 03:38:00,22.8,9.1,30.25,NW,308,10.0,13.0,55,0.00,,,0.00,meteohub,2013-02-02 08:38:00,
2013-02-02 03:43:00,22.8,9.1,30.25,WNW,285,5.0,13.0,55,0.00,,,0.00,meteohub,2013-02-02 08:43:00,
2013-02-02 03:48:00,22.8,9.5,30.26,NNW,345,5.0,11.0,56,0.00,,,0.00,meteohub,2013-02-02 08:48:00,
2013-02-02 03:53:00,22.6,9.3,30.25,NE,43,3.0,11.0,56,0.00,,,0.00,meteohub,2013-02-02 08:53:00,
2013-02-02 03:58:00,22.6,9.3,30.26,SSW,203,4.0,9.0,56,0.00,,,0.00,meteohub,2013-02-02 08:58:00,
2013-02-02 04:03:00,22.5,9.1,30.26,SSE,155,2.0,9.0,56,0.00,,,0.00,meteohub,2013-02-02 09:03:00,
2013-02-02 04:09:00,22.5,9.1,30.26,WSW,246,8.0,8.0,56,0.00,,,0.00,meteohub,2013-02-02 09:09:00,
2013-02-02 04:14:00,22.5,9.1,30.26,NE,43,4.0,8.0,56,0.00,,,0.00,meteohub,2013-02-02 09:14:00,
2013-02-02 04:19:00,22.3,9.0,30.26,NNW,339,5.0,8.0,56,0.00,,,0.00,meteohub,2013-02-02 09:19:00,
2013-02-02 04:24:00,22.3,9.0,30.26,WSW,242,4.0,8.0,56,0.00,,,0.00,meteohub,2013-02-02 09:24:00,
2013-02-02 04:29:00,22.3,9.0,30.26,SW,222,1.0,7.0,56,0.00,,,0.00,meteohub,2013-02-02 09:29:00,
2013-02-02 04:34:00,22.1,8.8,30.26,NW,313,5.0,7.0,56,0.00,,,0.00,meteohub,2013-02-02 09:34:00,
2013-02-02 04:40:00,21.9,8.6,30.26,WNW,296,3.0,9.0,56,0.00,,,0.00,meteohub,2013-02-02 09:40:00,
2013-02-02 04:45:00,21.9,8.6,30.26,SSW,205,1.0,9.0,56,0.00,,,0.00,meteohub,2013-02-02 09:45:00,
2013-02-02 04:50:00,21.9,8.6,30.25,SW,233,2.0,9.0,56,0.00,,,0.00,meteohub,2013-02-02 09:50:00,
2013-02-02 04:55:00,21.9,8.6,30.26,SW,219,2.0,6.0,56,0.00,,,0.00,meteohub,2013-02-02 09:55:00,
2013-02-02 05:00:00,21.9,8.6,30.26,SSW,211,2.0,8.0,56,0.00,,,0.00,meteohub,2013-02-02 10:00:00,
2013-02-02 05:05:00,21.7,8.8,30.26,WNW,300,3.0,8.0,57,0.00,,,0.00,meteohub,2013-02-02 10:05:00,
2013-02-02 05:11:00,21.7,8.4,30.26,SE,124,2.0,8.0,56,0.00,,,0.00,meteohub,2013-02-02 10:11:00,
2013-02-02 05:16:00,21.6,8.6,30.26,WNW,286,5.0,8.0,57,0.00,,,0.00,meteohub,2013-02-02 10:16:00,
2013-02-02 05:21:00,21.7,8.4,30.25,NE,34,5.0,8.0,56,0.00,,,0.00,meteohub,2013-02-02 10:21:00,
2013-02-02 05:26:00,21.7,8.8,30.25,WNW,295,3.0,10.0,57,0.00,,,0.00,meteohub,2013-02-02 10:26:00,
2013-02-02 05:31:00,21.7,8.8,30.26,South,171,3.0,9.0,57,0.00,,,0.00,meteohub,2013-02-02 10:31:00,
2013-02-02 05:37:00,21.6,8.2,30.26,SSW,205,2.0,9.0,56,0.00,,,0.00,meteohub,2013-02-02 10:37:00,
2013-02-02 05:42:00,21.6,8.2,30.26,West,274,4.0,9.0,56,0.00,,,0.00,meteohub,2013-02-02 10:42:00,
2013-02-02 05:47:00,21.6,8.2,30.25,NNW,335,3.0,9.0,56,0.00,,,0.00,meteohub,2013-02-02 10:47:00,
2013-02-02 05:52:00,21.4,8.1,30.25,SW,214,1.0,8.0,56,0.00,,,0.00,meteohub,2013-02-02 10:52:00,
2013-02-02 05:57:00,21.4,8.1,30.26,West,273,4.0,7.0,56,0.00,,,0.00,meteohub,2013-02-02 10:57:00,
2013-02-02 06:02:00,21.4,8.1,30.26,NW,307,2.0,9.0,56,0.00,,,0.00,meteohub,2013-02-02 11:02:00,
2013-02-02 06:07:00,21.4,8.6,30.27,WSW,249,3.0,9.0,57,0.00,,,0.00,meteohub,2013-02-02 11:07:00,
2013-02-02 06:12:00,21.4,8.6,30.26,NNW,333,4.0,9.0,57,0.00,,,0.00,meteohub,2013-02-02 11:12:00,
2013-02-02 06:17:00,21.2,8.4,30.26,NW,309,4.0,9.0,57,0.00,,,0.00,meteohub,2013-02-02 11:17:00,
2013-02-02 06:22:00,21.2,8.4,30.26,WSW,249,2.0,8.0,57,0.00,,,0.00,meteohub,2013-02-02 11:22:00,
2013-02-02 06:27:00,21.2,8.4,30.26,SSW,211,1.0,8.0,57,0.00,,,0.00,meteohub,2013-02-02 11:27:00,
2013-02-02 06:32:00,21.0,8.6,30.26,NNW,338,2.0,8.0,58,0.00,,,0.00,meteohub,2013-02-02 11:32:00,
2013-02-02 06:37:00,21.0,8.6,30.26,NW,315,4.0,7.0,58,0.00,,,0.00,meteohub,2013-02-02 11:37:00,
2013-02-02 06:42:00,21.0,8.6,30.27,NE,46,5.0,7.0,58,0.00,,,0.00,meteohub,2013-02-02 11:42:00,
2013-02-02 06:47:00,21.0,8.2,30.27,WSW,257,4.0,7.0,57,0.00,,,0.00,meteohub,2013-02-02 11:47:00,
2013-02-02 06:52:00,20.8,8.4,30.27,NW,309,5.0,7.0,58,0.00,,,0.00,meteohub,2013-02-02 11:52:00,
2013-02-02 06:57:00,20.8,8.4,30.27,NNW,333,4.0,7.0,58,0.00,,,0.00,meteohub,2013-02-02 11:57:00,
2013-02-02 07:02:00,20.8,8.4,30.28,NW,324,3.0,7.0,58,0.00,,,0.00,meteohub,2013-02-02 12:02:00,
2013-02-02 07:07:00,20.8,8.4,30.28,SW,225,3.0,7.0,58,0.00,,,0.00,meteohub,2013-02-02 12:07:00,
2013-02-02 07:12:00,20.8,8.4,30.28,SSW,210,2.0,7.0,58,0.00,,,0.00,meteohub,2013-02-02 12:12:00,
2013-02-02 07:17:00,20.8,8.8,30.28,West,266,0.0,7.0,59,0.00,,,0.00,meteohub,2013-02-02 12:17:00,
2013-02-02 07:23:00,20.8,8.8,30.29,SW,225,1.0,7.0,59,0.00,,,0.00,meteohub,2013-02-02 12:23:00,
2013-02-02 07:28:00,20.8,8.8,30.29,ENE,77,4.0,6.0,59,0.00,,,0.00,meteohub,2013-02-02 12:28:00,
2013-02-02 07:33:00,20.8,8.8,30.29,NW,309,3.0,6.0,59,0.00,,,0.00,meteohub,2013-02-02 12:33:00,
2013-02-02 07:38:00,20.8,8.4,30.29,SW,217,1.0,7.0,58,0.00,,,0.00,meteohub,2013-02-02 12:38:00,
2013-02-02 07:43:00,21.0,9.0,30.29,SSW,197,1.0,7.0,59,0.00,,,0.00,meteohub,2013-02-02 12:43:00,
2013-02-02 07:49:00,21.0,9.0,30.29,WSW,246,4.0,7.0,59,0.00,,,0.00,meteohub,2013-02-02 12:49:00,
2013-02-02 07:54:00,21.0,9.0,30.29,WSW,239,2.0,7.0,59,0.00,,,0.00,meteohub,2013-02-02 12:54:00,
2013-02-02 07:59:00,21.2,9.1,30.29,SW,217,1.0,7.0,59,0.00,,,0.00,meteohub,2013-02-02 12:59:00,
2013-02-02 08:04:00,21.4,9.3,30.29,SW,225,1.0,6.0,59,0.00,,,0.00,meteohub,2013-02-02 13:04:00,
2013-02-02 08:09:00,21.4,9.0,30.30,East,95,5.0,6.0,58,0.00,,,0.00,meteohub,2013-02-02 13:09:00,
2013-02-02 08:15:00,21.6,9.1,30.30,East,93,4.0,6.0,58,0.00,,,0.00,meteohub,2013-02-02 13:15:00,
2013-02-02 08:20:00,21.6,9.1,30.30,NW,307,3.0,6.0,58,0.00,,,0.00,meteohub,2013-02-02 13:20:00,
2013-02-02 08:25:00,21.9,9.3,30.29,WSW,243,3.0,9.0,58,0.00,,,0.00,meteohub,2013-02-02 13:25:00,
2013-02-02 08:30:00,22.5,9.5,30.29,South,186,1.0,9.0,57,0.00,,,0.00,meteohub,2013-02-02 13:30:00,
2013-02-02 08:35:00,22.5,9.5,30.29,WNW,295,2.0,9.0,57,0.00,,,0.00,meteohub,2013-02-02 13:35:00,
2013-02-02 08:41:00,22.5,9.5,30.29,SW,222,1.0,6.0,57,0.00,,,0.00,meteohub,2013-02-02 13:41:00,
2013-02-02 08:46:00,22.5,9.5,30.29,West,259,2.0,5.0,57,0.00,,,0.00,meteohub,2013-02-02 13:46:00,
2013-02-02 08:51:00,22.6,9.7,30.29,SSW,194,3.0,5.0,57,0.00,,,0.00,meteohub,2013-02-02 13:51:00,
2013-02-02 08:56:00,23.4,10.8,30.29,SW,228,2.0,5.0,58,0.00,,,0.00,meteohub,2013-02-02 13:56:00,
2013-02-02 09:01:00,23.9,10.4,30.29,ESE,115,2.0,5.0,56,0.00,,,0.00,meteohub,2013-02-02 14:01:00,
2013-02-02 09:07:00,23.7,10.4,30.28,WNW,285,3.0,6.0,56,0.00,,,0.00,meteohub,2013-02-02 14:07:00,
2013-02-02 09:12:00,23.5,10.2,30.28,NE,47,5.0,6.0,56,0.00,,,0.00,meteohub,2013-02-02 14:12:00,
2013-02-02 09:17:00,23.5,10.2,30.28,SW,233,1.0,6.0,56,0.00,,,0.00,meteohub,2013-02-02 14:17:00,
2013-02-02 09:22:00,23.4,10.0,30.28,SW,214,1.0,5.0,56,0.00,,,0.00,meteohub,2013-02-02 14:22:00,
2013-02-02 09:27:00,23.5,10.2,30.27,SW,217,1.0,5.0,56,0.00,,,0.00,meteohub,2013-02-02 14:27:00,
2013-02-02 09:32:00,23.7,10.4,30.27,SSW,198,0.0,5.0,56,0.00,,,0.00,meteohub,2013-02-02 14:32:00,
2013-02-02 09:38:00,23.7,10.4,30.27,SSW,211,0.0,3.0,56,0.00,,,0.00,meteohub,2013-02-02 14:38:00,
2013-02-02 09:43:00,24.1,10.6,30.27,SW,221,1.0,4.0,56,0.00,,,0.00,meteohub,2013-02-02 14:43:00,
2013-02-02 09:48:00,24.3,10.4,30.27,SW,224,2.0,4.0,55,0.00,,,0.00,meteohub,2013-02-02 14:48:00,
2013-02-02 09:53:00,24.6,10.8,30.27,WSW,239,2.0,4.0,55,0.00,,,0.00,meteohub,2013-02-02 14:53:00,
2013-02-02 09:58:00,25.2,11.3,30.27,South,181,1.0,4.0,55,0.00,,,0.00,meteohub,2013-02-02 14:58:00,
2013-02-02 10:03:00,25.9,11.5,30.27,NNW,338,4.0,4.0,54,0.00,,,0.00,meteohub,2013-02-02 15:03:00,
2013-02-02 10:09:00,26.6,11.3,30.26,SSE,158,2.0,5.0,52,0.00,,,0.00,meteohub,2013-02-02 15:09:00,
2013-02-02 10:14:00,27.3,11.7,30.26,South,186,1.0,5.0,51,0.00,,,0.00,meteohub,2013-02-02 15:14:00,
2013-02-02 10:19:00,27.9,11.7,30.26,South,187,0.0,5.0,50,0.00,,,0.00,meteohub,2013-02-02 15:19:00,
2013-02-02 10:24:00,28.2,12.0,30.25,SSW,209,0.0,5.0,50,0.00,,,0.00,meteohub,2013-02-02 15:24:00,
2013-02-02 10:30:00,29.1,12.4,30.25,SSW,201,2.0,5.0,49,0.00,,,0.00,meteohub,2013-02-02 15:30:00,
2013-02-02 10:35:00,29.5,11.3,30.25,East,94,4.0,5.0,46,0.00,,,0.00,meteohub,2013-02-02 15:35:00,
2013-02-02 10:40:00,29.1,11.5,30.25,South,183,0.0,5.0,47,0.00,,,0.00,meteohub,2013-02-02 15:40:00,
2013-02-02 10:45:00,30.0,11.7,30.25,SSW,211,1.0,4.0,46,0.00,,,0.00,meteohub,2013-02-02 15:45:00,
2013-02-02 10:50:00,29.8,11.1,30.25,SSE,152,2.0,5.0,45,0.00,,,0.00,meteohub,2013-02-02 15:50:00,
2013-02-02 10:56:00,30.0,11.7,30.24,SSW,204,0.0,5.0,46,0.00,,,0.00,meteohub,2013-02-02 15:56:00,
2013-02-02 11:01:00,30.0,11.3,30.24,South,188,1.0,5.0,45,0.00,,,0.00,meteohub,2013-02-02 16:01:00,
2013-02-02 11:06:00,29.7,11.8,30.24,WSW,249,2.0,6.0,47,0.00,,,0.00,meteohub,2013-02-02 16:06:00,
2013-02-02 11:11:00,29.3,11.5,30.24,South,173,0.0,6.0,47,0.00,,,0.00,meteohub,2013-02-02 16:11:00,
2013-02-02 11:16:00,28.9,11.3,30.23,SSE,158,2.0,6.0,47,0.00,,,0.00,meteohub,2013-02-02 16:16:00,
2013-02-02 11:22:00,29.1,11.5,30.23,East,89,3.0,6.0,47,0.00,,,0.00,meteohub,2013-02-02 16:22:00,
2013-02-02 11:27:00,29.1,10.9,30.23,SSE,153,2.0,6.0,46,0.00,,,0.00,meteohub,2013-02-02 16:27:00,
2013-02-02 11:32:00,29.7,11.5,30.22,WSW,246,3.0,5.0,46,0.00,,,0.00,meteohub,2013-02-02 16:32:00,
2013-02-02 11:37:00,29.5,11.3,30.22,SE,146,2.0,6.0,46,0.00,,,0.00,meteohub,2013-02-02 16:37:00,
2013-02-02 11:42:00,29.7,11.8,30.22,SE,138,2.0,6.0,47,0.00,,,0.00,meteohub,2013-02-02 16:42:00,
2013-02-02 11:47:00,29.5,11.7,30.22,SSW,209,2.0,7.0,47,0.00,,,0.00,meteohub,2013-02-02 16:47:00,
2013-02-02 11:52:00,29.7,11.5,30.21,SW,224,2.0,7.0,46,0.00,,,0.00,meteohub,2013-02-02 16:52:00,
2013-02-02 11:57:00,29.8,11.7,30.21,ESE,105,4.0,7.0,46,0.00,,,0.00,meteohub,2013-02-02 16:57:00,
2013-02-02 12:02:00,29.7,11.5,30.21,West,280,3.0,9.0,46,0.00,,,0.00,meteohub,2013-02-02 17:02:00,
2013-02-02 12:07:00,29.7,10.9,30.20,SE,128,4.0,9.0,45,0.00,,,0.00,meteohub,2013-02-02 17:07:00,
2013-02-02 12:12:00,29.8,12.0,30.20,East,91,4.0,10.0,47,0.00,,,0.00,meteohub,2013-02-02 17:12:00,
2013-02-02 12:17:00,29.7,11.5,30.19,SW,215,3.0,10.0,46,0.00,,,0.00,meteohub,2013-02-02 17:17:00,
2013-02-02 12:22:00,29.8,11.7,30.19,West,281,4.0,8.0,46,0.00,,,0.00,meteohub,2013-02-02 17:22:00,
2013-02-02 12:27:00,29.7,11.5,30.19,East,88,5.0,8.0,46,0.00,,,0.00,meteohub,2013-02-02 17:27:00,
2013-02-02 12:32:00,29.7,11.8,30.19,NE,49,6.0,8.0,47,0.00,,,0.00,meteohub,2013-02-02 17:32:00,
2013-02-02 12:37:00,29.8,11.1,30.18,SSE,159,1.0,9.0,45,0.00,,,0.00,meteohub,2013-02-02 17:37:00,
2013-02-02 12:42:00,30.0,11.3,30.18,SE,134,3.0,9.0,45,0.00,,,0.00,meteohub,2013-02-02 17:42:00,
2013-02-02 12:47:00,30.4,12.0,30.18,ESE,117,2.0,9.0,46,0.00,,,0.00,meteohub,2013-02-02 17:47:00,
2013-02-02 12:52:00,30.4,10.6,30.18,West,260,4.0,7.0,43,0.00,,,0.00,meteohub,2013-02-02 17:52:00,
2013-02-02 12:57:00,29.8,9.5,30.17,South,191,4.0,9.0,42,0.00,,,0.00,meteohub,2013-02-02 17:57:00,
2013-02-02 13:02:00,29.7,9.3,30.17,SSW,201,3.0,11.0,42,0.00,,,0.00,meteohub,2013-02-02 18:02:00,
2013-02-02 13:07:00,29.7,9.9,30.17,North,10,5.0,11.0,43,0.00,,,0.00,meteohub,2013-02-02 18:07:00,
2013-02-02 13:13:00,29.8,9.5,30.16,East,84,5.0,11.0,42,0.00,,,0.00,meteohub,2013-02-02 18:13:00,
2013-02-02 13:18:00,30.0,9.7,30.16,NW,314,3.0,10.0,42,0.00,,,0.00,meteohub,2013-02-02 18:18:00,
2013-02-02 13:23:00,30.4,9.5,30.15,ESE,102,3.0,14.0,41,0.00,,,0.00,meteohub,2013-02-02 18:23:00,
2013-02-02 13:28:00,30.2,9.3,30.15,ESE,122,4.0,14.0,41,0.00,,,0.00,meteohub,2013-02-02 18:28:00,
2013-02-02 13:33:00,30.2,8.8,30.15,SE,131,3.0,9.0,40,0.00,,,0.00,meteohub,2013-02-02 18:33:00,
2013-02-02 13:38:00,30.0,8.6,30.15,North,5,3.0,10.0,40,0.00,,,0.00,meteohub,2013-02-02 18:38:00,
2013-02-02 13:44:00,29.8,8.4,30.14,SE,126,7.0,11.0,40,0.00,,,0.00,meteohub,2013-02-02 18:44:00,
2013-02-02 13:49:00,30.0,9.1,30.14,East,93,3.0,11.0,41,0.00,,,0.00,meteohub,2013-02-02 18:49:00,
2013-02-02 13:54:00,30.6,9.7,30.14,SE,141,3.0,8.0,41,0.00,,,0.00,meteohub,2013-02-02 18:54:00,
2013-02-02 13:59:00,31.5,8.8,30.14,ENE,77,6.0,9.0,38,0.00,,,0.00,meteohub,2013-02-02 18:59:00,
2013-02-02 14:04:00,31.6,9.0,30.14,East,88,6.0,11.0,38,0.00,,,0.00,meteohub,2013-02-02 19:04:00,
2013-02-02 14:10:00,31.6,9.5,30.13,West,274,3.0,11.0,39,0.00,,,0.00,meteohub,2013-02-02 19:10:00,
2013-02-02 14:15:00,31.6,9.0,30.13,WSW,249,2.0,11.0,38,0.00,,,0.00,meteohub,2013-02-02 19:15:00,
2013-02-02 14:20:00,31.6,8.4,30.12,WNW,300,3.0,11.0,37,0.00,,,0.00,meteohub,2013-02-02 19:20:00,
2013-02-02 14:25:00,31.5,8.2,30.13,SE,136,1.0,11.0,37,0.00,,,0.00,meteohub,2013-02-02 19:25:00,
2013-02-02 14:30:00,31.3,9.1,30.13,East,79,2.0,11.0,39,0.00,,,0.00,meteohub,2013-02-02 19:30:00,
2013-02-02 14:35:00,31.6,9.0,30.12,ENE,63,4.0,10.0,38,0.00,,,0.00,meteohub,2013-02-02 19:35:00,
2013-02-02 14:41:00,31.6,8.4,30.12,NNW,339,6.0,10.0,37,0.00,,,0.00,meteohub,2013-02-02 19:41:00,
2013-02-02 14:46:00,31.3,8.6,30.12,East,89,4.0,10.0,38,0.00,,,0.00,meteohub,2013-02-02 19:46:00,
2013-02-02 14:51:00,30.9,9.5,30.12,ENE,74,4.0,10.0,40,0.00,,,0.00,meteohub,2013-02-02 19:51:00,
2013-02-02 14:56:00,30.7,9.9,30.12,East,86,6.0,9.0,41,0.00,,,0.00,meteohub,2013-02-02 19:56:00,
2013-02-02 15:01:00,30.9,8.8,30.12,WSW,250,3.0,9.0,39,0.00,,,0.00,meteohub,2013-02-02 20:01:00,
2013-02-02 15:06:00,30.6,8.6,30.12,ESE,118,2.0,8.0,39,0.00,,,0.00,meteohub,2013-02-02 20:06:00,
2013-02-02 15:12:00,30.6,7.9,30.11,SSW,200,3.0,9.0,38,0.00,,,0.00,meteohub,2013-02-02 20:12:00,
2013-02-02 15:17:00,30.6,8.6,30.11,South,184,1.0,10.0,39,0.00,,,0.00,meteohub,2013-02-02 20:17:00,
2013-02-02 15:22:00,30.4,9.0,30.11,NNW,345,4.0,10.0,40,0.00,,,0.00,meteohub,2013-02-02 20:22:00,
2013-02-02 15:27:00,30.2,8.2,30.11,East,87,4.0,10.0,39,0.00,,,0.00,meteohub,2013-02-02 20:27:00,
2013-02-02 15:32:00,30.0,8.1,30.11,SSW,195,1.0,8.0,39,0.00,,,0.00,meteohub,2013-02-02 20:32:00,
2013-02-02 15:37:00,30.2,8.8,30.11,NNW,335,5.0,9.0,40,0.00,,,0.00,meteohub,2013-02-02 20:37:00,
2013-02-02 15:42:00,30.2,8.8,30.11,SSW,200,1.0,9.0,40,0.00,,,0.00,meteohub,2013-02-02 20:42:00,
2013-02-02 15:47:00,30.4,9.5,30.11,NNW,346,7.0,9.0,41,0.00,,,0.00,meteohub,2013-02-02 20:47:00,
2013-02-02 15:52:00,30.0,9.7,30.10,SSE,155,1.0,9.0,42,0.00,,,0.00,meteohub,2013-02-02 20:52:00,
2013-02-02 15:57:00,29.8,9.5,30.11,SW,226,1.0,11.0,42,0.00,,,0.00,meteohub,2013-02-02 20:57:00,
2013-02-02 16:02:00,30.0,9.7,30.11,ESE,114,7.0,11.0,42,0.00,,,0.00,meteohub,2013-02-02 21:02:00,
2013-02-02 16:07:00,30.0,9.7,30.10,SE,130,2.0,11.0,42,0.00,,,0.00,meteohub,2013-02-02 21:07:00,
2013-02-02 16:12:00,29.8,10.0,30.10,SSW,210,4.0,11.0,43,0.00,,,0.00,meteohub,2013-02-02 21:12:00,
2013-02-02 16:17:00,29.8,10.0,30.10,ESE,113,3.0,11.0,43,0.00,,,0.00,meteohub,2013-02-02 21:17:00,
2013-02-02 16:22:00,29.8,10.0,30.09,East,95,4.0,11.0,43,0.00,,,0.00,meteohub,2013-02-02 21:22:00,
2013-02-02 16:27:00,29.8,10.0,30.09,SE,146,2.0,9.0,43,0.00,,,0.00,meteohub,2013-02-02 21:27:00,
2013-02-02 16:32:00,29.8,10.6,30.09,SSE,152,2.0,9.0,44,0.00,,,0.00,meteohub,2013-02-02 21:32:00,
2013-02-02 16:37:00,29.8,10.0,30.09,ESE,108,3.0,7.0,43,0.00,,,0.00,meteohub,2013-02-02 21:37:00,
2013-02-02 16:42:00,29.8,10.6,30.09,South,184,1.0,7.0,44,0.00,,,0.00,meteohub,2013-02-02 21:42:00,
2013-02-02 16:47:00,30.0,10.8,30.09,East,96,4.0,7.0,44,0.00,,,0.00,meteohub,2013-02-02 21:47:00,
2013-02-02 16:52:00,30.0,10.8,30.09,SSE,152,2.0,6.0,44,0.00,,,0.00,meteohub,2013-02-02 21:52:00,
2013-02-02 16:57:00,30.0,10.8,30.09,South,169,0.0,4.0,44,0.00,,,0.00,meteohub,2013-02-02 21:57:00,
2013-02-02 17:02:00,29.8,11.1,30.09,East,81,3.0,7.0,45,0.00,,,0.00,meteohub,2013-02-02 22:02:00,
2013-02-02 17:07:00,29.8,11.1,30.09,ENE,72,3.0,7.0,45,0.00,,,0.00,meteohub,2013-02-02 22:07:00,
2013-02-02 17:12:00,29.8,11.1,30.09,South,190,1.0,7.0,45,0.00,,,0.00,meteohub,2013-02-02 22:12:00,
2013-02-02 17:17:00,29.7,10.9,30.09,South,187,1.0,5.0,45,0.00,,,0.00,meteohub,2013-02-02 22:17:00,
2013-02-02 17:22:00,29.7,10.9,30.09,SE,143,2.0,5.0,45,0.00,,,0.00,meteohub,2013-02-02 22:22:00,
2013-02-02 17:27:00,29.7,11.5,30.09,SSE,158,1.0,5.0,46,0.00,,,0.00,meteohub,2013-02-02 22:27:00,
2013-02-02 17:32:00,29.7,11.5,30.09,South,179,0.0,5.0,46,0.00,,,0.00,meteohub,2013-02-02 22:32:00,
2013-02-02 17:37:00,29.7,11.8,30.08,SSW,204,1.0,4.0,47,0.00,,,0.00,meteohub,2013-02-02 22:37:00,
2013-02-02 17:42:00,29.7,11.8,30.09,SSE,162,2.0,4.0,47,0.00,,,0.00,meteohub,2013-02-02 22:42:00,
2013-02-02 17:47:00,29.7,11.5,30.09,South,169,2.0,5.0,46,0.00,,,0.00,meteohub,2013-02-02 22:47:00,
2013-02-02 17:52:00,29.7,11.5,30.08,South,184,2.0,6.0,46,0.00,,,0.00,meteohub,2013-02-02 22:52:00,
2013-02-02 17:57:00,29.7,11.8,30.08,SSE,155,1.0,6.0,47,0.00,,,0.00,meteohub,2013-02-02 22:57:00,
2013-02-02 18:02:00,29.7,11.8,30.09,WSW,256,2.0,6.0,47,0.00,,,0.00,meteohub,2013-02-02 23:02:00,
2013-02-02 18:07:00,29.8,12.6,30.08,North,1,6.0,6.0,48,0.00,,,0.00,meteohub,2013-02-02 23:07:00,
2013-02-02 18:12:00,29.8,11.7,30.08,ESE,115,2.0,8.0,46,0.00,,,0.00,meteohub,2013-02-02 23:12:00,
2013-02-02 18:18:00,29.8,11.7,30.08,ENE,70,5.0,8.0,46,0.00,,,0.00,meteohub,2013-02-02 23:18:00,
2013-02-02 18:23:00,29.8,11.7,30.08,SSW,193,0.0,8.0,46,0.00,,,0.00,meteohub,2013-02-02 23:23:00,
2013-02-02 18:28:00,29.8,12.0,30.08,South,186,1.0,5.0,47,0.00,,,0.00,meteohub,2013-02-02 23:28:00,
2013-02-02 18:33:00,29.8,11.1,30.08,SSE,162,1.0,5.0,45,0.00,,,0.00,meteohub,2013-02-02 23:33:00,
2013-02-02 18:38:00,29.8,11.1,30.08,SW,222,2.0,6.0,45,0.00,,,0.00,meteohub,2013-02-02 23:38:00,
2013-02-02 18:44:00,29.8,11.1,30.08,South,191,2.0,6.0,45,0.00,,,0.00,meteohub,2013-02-02 23:44:00,
2013-02-02 18:49:00,29.8,11.1,30.08,SSW,200,1.0,7.0,45,0.00,,,0.00,meteohub,2013-02-02 23:49:00,
2013-02-02 18:54:00,29.8,11.7,30.08,WSW,239,3.0,7.0,46,0.00,,,0.00,meteohub,2013-02-02 23:54:00,
2013-02-02 18:59:00,29.8,11.7,30.08,ENE,66,6.0,7.0,46,0.00,,,0.00,meteohub,2013-02-02 23:59:00,
2013-02-02 19:04:00,29.8,12.6,30.08,SSE,165,4.0,8.0,48,0.00,,,0.00,meteohub,2013-02-03 00:04:00,
2013-02-02 19:09:00,29.8,12.0,30.08,NNW,340,2.0,8.0,47,0.00,,,0.00,meteohub,2013-02-03 00:09:00,
2013-02-02 19:15:00,29.8,12.6,30.08,SW,225,3.0,9.0,48,0.00,,,0.00,meteohub,2013-02-03 00:15:00,
2013-02-02 19:20:00,29.8,12.6,30.08,West,275,7.0,9.0,48,0.00,,,0.00,meteohub,2013-02-03 00:20:00,
2013-02-02 19:25:00,29.8,12.9,30.08,SSW,198,2.0,8.0,49,0.00,,,0.00,meteohub,2013-02-03 00:25:00,
2013-02-02 19:30:00,29.7,13.3,30.08,ESE,113,2.0,9.0,50,0.00,,,0.00,meteohub,2013-02-03 00:30:00,
2013-02-02 19:35:00,29.7,13.8,30.07,NE,49,6.0,8.0,51,0.00,,,0.00,meteohub,2013-02-03 00:35:00,
2013-02-02 19:40:00,29.7,14.2,30.07,NNE,17,6.0,7.0,52,0.00,,,0.00,meteohub,2013-02-03 00:40:00,
2013-02-02 19:46:00,29.5,14.0,30.07,WSW,256,2.0,8.0,52,0.00,,,0.00,meteohub,2013-02-03 00:46:00,
2013-02-02 19:51:00,29.5,14.0,30.07,NW,316,3.0,8.0,52,0.00,,,0.00,meteohub,2013-02-03 00:51:00,
2013-02-02 19:56:00,29.5,14.5,30.07,SW,219,1.0,9.0,53,0.00,,,0.00,meteohub,2013-02-03 00:56:00,
2013-02-02 20:01:00,29.3,14.7,30.07,SW,222,1.0,9.0,54,0.00,,,0.00,meteohub,2013-02-03 01:01:00,
2013-02-02 20:07:00,29.1,14.9,30.07,West,271,3.0,8.0,55,0.00,,,0.00,meteohub,2013-02-03 01:07:00,
2013-02-02 20:12:00,28.9,14.7,30.07,SE,135,2.0,12.0,55,0.00,,,0.00,meteohub,2013-02-03 01:12:00,
2013-02-02 20:17:00,28.9,14.7,30.07,South,180,1.0,12.0,55,0.00,,,0.00,meteohub,2013-02-03 01:17:00,
2013-02-02 20:22:00,28.9,14.7,30.07,SSW,193,2.0,12.0,55,0.00,,,0.00,meteohub,2013-02-03 01:22:00,
2013-02-02 20:27:00,28.8,15.1,30.07,SSW,207,2.0,8.0,56,0.00,,,0.00,meteohub,2013-02-03 01:27:00,
2013-02-02 20:32:00,28.8,15.4,30.07,West,277,5.0,8.0,57,0.00,,,0.00,meteohub,2013-02-03 01:32:00,
2013-02-02 20:37:00,28.6,15.6,30.08,SE,135,2.0,7.0,58,0.00,,,0.00,meteohub,2013-02-03 01:37:00,
2013-02-02 20:42:00,28.4,16.3,30.08,ESE,111,3.0,7.0,60,0.00,,,0.00,meteohub,2013-02-03 01:42:00,
2013-02-02 20:47:00,28.2,16.2,30.08,ENE,70,3.0,7.0,60,0.00,,,0.00,meteohub,2013-02-03 01:47:00,
2013-02-02 20:52:00,28.2,16.5,30.08,South,184,2.0,7.0,61,0.00,,,0.00,meteohub,2013-02-03 01:52:00,
2013-02-02 20:57:00,28.2,17.2,30.08,SE,130,3.0,5.0,63,0.00,,,0.00,meteohub,2013-02-03 01:57:00,
2013-02-02 21:02:00,28.0,17.4,30.08,West,259,2.0,5.0,64,0.00,,,0.00,meteohub,2013-02-03 02:02:00,
2013-02-02 21:07:00,28.0,17.4,30.08,SW,214,0.0,5.0,64,0.00,,,0.00,meteohub,2013-02-03 02:07:00,
2013-02-02 21:12:00,27.9,17.2,30.08,SW,219,3.0,6.0,64,0.00,,,0.00,meteohub,2013-02-03 02:12:00,
2013-02-02 21:17:00,27.7,17.4,30.08,SSW,197,0.0,6.0,65,0.00,,,0.00,meteohub,2013-02-03 02:17:00,
2013-02-02 21:22:00,27.7,17.8,30.08,ENE,60,4.0,6.0,66,0.00,,,0.00,meteohub,2013-02-03 02:22:00,
2013-02-02 21:27:00,27.9,18.0,30.08,West,259,2.0,6.0,66,0.00,,,0.00,meteohub,2013-02-03 02:27:00,
2013-02-02 21:32:00,27.7,18.1,30.08,SSW,211,1.0,6.0,67,0.00,,,0.00,meteohub,2013-02-03 02:32:00,
2013-02-02 21:37:00,27.7,18.1,30.08,South,174,0.0,6.0,67,0.00,,,0.00,meteohub,2013-02-03 02:37:00,
2013-02-02 21:42:00,27.7,18.5,30.08,South,180,2.0,6.0,68,0.00,,,0.00,meteohub,2013-02-03 02:42:00,
2013-02-02 21:47:00,27.5,18.7,30.08,SSE,159,1.0,6.0,69,0.00,,,0.00,meteohub,2013-02-03 02:47:00,
2013-02-02 21:52:00,27.3,19.2,30.07,South,172,3.0,6.0,71,0.00,,,0.00,meteohub,2013-02-03 02:52:00,
2013-02-02 21:57:00,27.1,19.4,30.08,South,169,1.0,5.0,72,0.00,,,0.00,meteohub,2013-02-03 02:57:00,
2013-02-02 22:02:00,27.3,19.8,30.08,SE,141,3.0,5.0,73,0.00,,,0.00,meteohub,2013-02-03 03:02:00,
2013-02-02 22:07:00,27.1,19.6,30.08,WSW,257,2.0,6.0,73,0.00,,,0.00,meteohub,2013-02-03 03:07:00,
2013-02-02 22:12:00,27.1,19.6,30.08,South,176,2.0,6.0,73,0.00,,,0.00,meteohub,2013-02-03 03:12:00,
2013-02-02 22:17:00,27.1,19.6,30.08,South,187,1.0,6.0,73,0.00,,,0.00,meteohub,2013-02-03 03:17:00,
2013-02-02 22:22:00,27.1,20.3,30.08,WSW,241,1.0,4.0,75,0.00,,,0.00,meteohub,2013-02-03 03:22:00,
2013-02-02 22:27:00,27.0,20.7,30.08,SSW,200,0.0,4.0,77,0.00,,,0.00,meteohub,2013-02-03 03:27:00,
2013-02-02 22:32:00,26.8,20.8,30.07,SW,219,1.0,3.0,78,0.00,,,0.00,meteohub,2013-02-03 03:32:00,
2013-02-02 22:37:00,26.8,21.4,30.07,SSW,211,0.0,3.0,80,0.00,,,0.00,meteohub,2013-02-03 03:37:00,
2013-02-02 22:42:00,26.6,21.6,30.07,SW,225,0.0,3.0,81,0.00,,,0.00,meteohub,2013-02-03 03:42:00,
2013-02-02 22:47:00,26.4,21.4,30.07,SSW,195,0.0,2.0,81,0.00,,,0.00,meteohub,2013-02-03 03:47:00,
2013-02-02 22:52:00,26.4,21.7,30.07,SW,215,0.0,1.0,82,0.00,,,0.00,meteohub,2013-02-03 03:52:00,
2013-02-02 22:57:00,26.2,21.7,30.07,South,169,1.0,1.0,83,0.00,,,0.00,meteohub,2013-02-03 03:57:00,
2013-02-02 23:02:00,26.2,22.1,30.06,SSW,194,0.0,2.0,84,0.00,,,0.00,meteohub,2013-02-03 04:02:00,
2013-02-02 23:07:00,26.2,22.1,30.06,SSW,194,0.0,2.0,84,0.00,,,0.00,meteohub,2013-02-03 04:07:00,
2013-02-02 23:12:00,26.2,22.3,30.06,SSW,194,0.0,2.0,85,0.00,,,0.00,meteohub,2013-02-03 04:12:00,
2013-02-02 23:17:00,26.1,22.1,30.06,SSW,194,0.0,0.0,85,0.00,,,0.00,meteohub,2013-02-03 04:17:00,
2013-02-02 23:22:00,26.1,22.1,30.06,SSW,194,0.0,0.0,85,0.00,,,0.00,meteohub,2013-02-03 04:22:00,
2013-02-02 23:27:00,26.1,22.5,30.05,SSW,194,0.0,0.0,86,0.00,,,0.00,meteohub,2013-02-03 04:27:00,
2013-02-02 23:32:00,26.1,22.5,30.05,SSW,194,0.0,0.0,86,0.00,,,0.00,meteohub,2013-02-03 04:32:00,
2013-02-02 23:37:00,26.1,22.5,30.05,SSW,194,0.0,0.0,86,0.00,,,0.00,meteohub,2013-02-03 04:37:00,
2013-02-02 23:42:00,26.1,22.5,30.05,SSW,195,0.0,0.0,86,0.00,,,0.00,meteohub,2013-02-03 04:42:00,
2013-02-02 23:47:00,26.1,22.5,30.05,SSW,205,0.0,0.0,86,0.00,,,0.00,meteohub,2013-02-03 04:47:00,
2013-02-02 23:52:00,26.1,22.5,30.04,SSW,205,0.0,0.0,86,0.00,,,0.00,meteohub,2013-02-03 04:52:00,
2013-02-02 23:57:00,26.2,22.6,30.04,SSW,204,0.0,0.0,86,0.00,,,0.00,meteohub,2013-02-03 04:57:00,